M1DJR Weather Reports


Display with metric or nautical units.
time (UTC)temp
F
wind
direction
speed
MPH
gust
MPH
rain 1hr
in
rain 24hr
in
rain mn
in
humidity
%
barometer
mb
20260505230346 47 0.0 0.0 0.00 0.00 0.00 71 1014.1
20260505225344 47 0.0 0.0 0.00 0.00 0.00 70 1014.0
20260505224422 47 0.0 0.0 0.00 0.00 0.00 70 1013.9
20260505223340 48 0.0 0.0 0.00 0.00 0.00 70 1014.0
20260505222338 48 0.0 0.0 0.00 0.00 0.00 70 1013.9
20260505221337 48 0.0 0.0 0.00 0.00 0.00 70 1013.9
20260505220333 48 0.0 0.0 0.00 0.00 0.00 70 1013.9
20260505215332 48 0.0 0.0 0.00 0.00 0.00 70 1013.9
20260505214330 49 0.0 0.0 0.00 0.00 0.00 70 1014.0
20260505213328 49 0.0 0.0 0.00 0.00 0.00 70 1013.9
20260505212327 49 0.0 0.0 0.00 0.00 0.00 70 1013.8
20260505211323 50 0.0 0.0 0.00 0.00 0.00 68 1013.8
20260505210322 50 0.0 0.0 0.00 0.00 0.00 67 1013.8
20260505205320 50 0.0 0.0 0.00 0.00 0.00 67 1013.7
20260505204317 50 0.0 0.0 0.00 0.00 0.00 68 1013.6
20260505203316 51 0.0 0.0 0.00 0.00 0.00 68 1013.5
20260505202314 51 0.0 0.0 0.00 0.00 0.00 67 1013.4
20260505201311 51 0.0 0.0 0.00 0.00 0.00 67 1013.3
20260505200309 51 0.0 0.0 0.00 0.00 0.00 66 1013.2
20260505195308 51 0.0 0.0 0.00 0.00 0.00 65 1013.2
20260505194307 52 0.0 0.0 0.00 0.00 0.00 65 1013.1
20260505193344 52 0.0 0.0 0.00 0.00 0.00 64 1013.1
20260505192305 53 0.0 0.0 0.00 0.00 0.00 63 1012.9
20260505191300 53 0.0 0.0 0.00 0.00 0.00 62 1012.9
20260505190258 53 0.0 0.0 0.00 0.00 0.00 61 1012.9
20260505185255 54 0.0 0.0 0.00 0.00 0.00 60 1012.8
20260505184253 55 0.0 0.0 0.00 0.00 0.00 56 1012.6
20260505183251 55 0.0 0.0 0.00 0.00 0.00 52 1012.5
20260505182250 55 0.0 0.0 0.00 0.00 0.00 51 1012.5
20260505181327 56 0.0 0.0 0.00 0.00 0.00 51 1012.5
20260505180246 56 0.0 0.0 0.00 0.00 0.00 50 1012.5
20260505175243 56 0.0 0.0 0.00 0.00 0.00 50 1012.5
20260505174241 57 0.0 0.0 0.00 0.00 0.00 50 1012.5
20260505173240 57 0.0 0.0 0.00 0.00 0.00 51 1012.6
20260505172318 57 0.0 0.0 0.00 0.00 0.00 50 1012.5
20260505171317 57 0.0 0.0 0.00 0.00 0.00 50 1012.5
20260505170233 57 0.0 0.0 0.00 0.00 0.00 49 1012.5
20260505165232 57 0.0 0.0 0.00 0.00 0.00 50 1012.4
20260505164230 57 0.0 0.0 0.00 0.00 0.00 50 1012.5
20260505163308 57 0.0 0.0 0.00 0.00 0.00 50 1012.5
20260505162226 58 0.0 0.0 0.00 0.00 0.00 49 1012.5
20260505161224 58 0.0 0.0 0.00 0.00 0.00 48 1012.5
20260505160222 58 0.0 0.0 0.00 0.00 0.00 47 1012.5
20260505153216 59 0.0 0.0 0.00 0.00 0.00 47 1012.5
20260505152214 59 0.0 0.0 0.00 0.00 0.00 46 1012.5
20260505151212 60 0.0 0.0 0.00 0.00 0.00 46 1012.5
20260505150210 60 0.0 0.0 0.00 0.00 0.00 46 1012.6
20260505140157 59 0.0 0.0 0.00 0.00 0.00 49 1012.7
20260505130226 57 0.0 0.0 0.00 0.00 0.00 53 1012.8
20260505124222 56 0.0 0.0 0.00 0.00 0.00 54 1012.9
20260505123140 56 0.0 0.0 0.00 0.00 0.00 55 1013.0
20260505122218 56 0.0 0.0 0.00 0.00 0.00 55 1012.9
20260505121136 56 0.0 0.0 0.00 0.00 0.00 55 1012.9
20260505120133 56 0.0 0.0 0.00 0.00 0.00 55 1012.9
20260505115212 56 0.0 0.0 0.00 0.00 0.00 56 1013.0
20260505114130 56 0.0 0.0 0.00 0.00 0.00 56 1013.0
20260505113128 56 0.0 0.0 0.00 0.00 0.00 56 1013.0
20260505112125 56 0.0 0.0 0.00 0.00 0.00 55 1013.1
20260505111124 57 0.0 0.0 0.00 0.00 0.00 55 1013.1
20260505110121 57 0.0 0.0 0.00 0.00 0.00 55 1013.1
20260505102113 58 0.0 0.0 0.00 0.00 0.00 57 1013.1
20260505101111 57 0.0 0.0 0.00 0.00 0.00 58 1013.2
20260505100150 56 0.0 0.0 0.00 0.00 0.00 61 1013.2
20260505095148 55 0.0 0.0 0.00 0.00 0.00 63 1013.3
20260505094106 54 0.0 0.0 0.00 0.00 0.00 64 1013.3
20260505093107 54 0.0 0.0 0.00 0.00 0.00 66 1013.3
20260505092141 53 0.0 0.0 0.00 0.00 0.00 68 1013.3
20260505091100 53 0.0 0.0 0.00 0.00 0.00 69 1013.3
20260505090138 52 0.0 0.0 0.00 0.00 0.00 70 1013.4
20260505085055 52 0.0 0.0 0.00 0.00 0.00 70 1013.3
20260505084054 52 0.0 0.0 0.00 0.00 0.00 72 1013.4
20260505083133 52 0.0 0.0 0.00 0.00 0.00 73 1013.5
20260505082050 51 0.0 0.0 0.00 0.00 0.00 76 1013.5
20260505081048 50 0.0 0.0 0.00 0.00 0.00 77 1013.5
20260505080045 49 0.0 0.0 0.00 0.00 0.00 79 1013.4
20260505075044 48 0.0 0.0 0.00 0.00 0.00 81 1013.5
20260505074042 47 0.0 0.0 0.00 0.00 0.00 82 1013.4
20260505073040 47 0.0 0.0 0.00 0.00 0.00 83 1013.4
20260505072039 46 0.0 0.0 0.00 0.00 0.00 85 1013.4
20260505071036 46 0.0 0.0 0.00 0.00 0.00 86 1013.5
20260505070034 45 0.0 0.0 0.00 0.00 0.00 87 1013.5
20260505065112 44 0.0 0.0 0.00 0.00 0.00 87 1013.5
20260505064030 43 0.0 0.0 0.00 0.00 0.00 87 1013.5
20260505063028 43 0.0 0.0 0.00 0.00 0.00 87 1013.5
20260505062026 42 0.0 0.0 0.00 0.00 0.00 86 1013.6
20260505061023 42 0.0 0.0 0.00 0.00 0.00 86 1013.6
20260505060022 42 0.0 0.0 0.00 0.00 0.00 86 1013.6
20260505055019 42 0.0 0.0 0.00 0.00 0.00 86 1013.6
20260505054018 42 0.0 0.0 0.00 0.00 0.00 86 1013.6
20260505053123 42 0.0 0.0 0.00 0.00 0.00 85 1013.5
20260505052053 42 0.0 0.0 0.00 0.00 0.00 85 1013.5
20260505051012 41 0.0 0.0 0.00 0.00 0.00 85 1013.5
20260505041000 42 0.0 0.0 0.00 0.00 0.00 84 1013.2
20260505035957 42 0.0 0.0 0.00 0.00 0.00 84 1013.3
20260505034956 42 0.0 0.0 0.00 0.00 0.00 84 1013.3
20260505033954 43 0.0 0.0 0.00 0.00 0.00 84 1013.4
20260505033031 43 0.0 0.0 0.00 0.00 0.00 84 1013.3
20260505031950 43 0.0 0.0 0.00 0.00 0.00 85 1013.4
20260505030949 43 0.0 0.0 0.00 0.00 0.00 85 1013.4
20260505025945 44 0.0 0.0 0.00 0.00 0.00 85 1013.5
20260505024944 44 0.0 0.0 0.00 0.00 0.00 85 1013.6
20260505024022 44 0.0 0.0 0.00 0.00 0.00 85 1013.6
20260505023019 44 0.0 0.0 0.00 0.00 0.00 85 1013.5
20260505021938 45 0.0 0.0 0.00 0.00 0.00 85 1013.6
20260505020936 45 0.0 0.0 0.00 0.00 0.00 85 1013.6
20260505020013 45 0.0 0.0 0.00 0.00 0.00 85 1013.6
20260505014932 46 0.0 0.0 0.00 0.00 0.00 85 1013.7
20260505013929 46 0.0 0.0 0.00 0.00 0.00 85 1013.8
20260505012928 46 0.0 0.0 0.00 0.00 0.00 85 1014.0
20260505011926 46 0.0 0.0 0.00 0.00 0.00 85 1014.0
20260505010924 46 0.0 0.0 0.00 0.00 0.00 85 1013.9
20260505010002 46 0.0 0.0 0.00 0.00 0.00 85 1013.9
20260505004921 46 0.0 0.0 0.00 0.00 0.00 85 1014.0
20260505003918 46 0.0 0.0 0.00 0.00 0.00 85 1014.2
20260505002916 47 0.0 0.0 0.00 0.00 0.00 85 1014.2
20260505001954 47 0.0 0.0 0.00 0.00 0.00 85 1014.2
20260505000912 46 0.0 0.0 0.00 0.00 0.00 84 1014.2
20260504235910 46 0.0 0.0 0.00 0.00 0.00 84 1014.4
20260504234907 46 0.0 0.0 0.00 0.00 0.00 84 1014.4
20260504233906 46 0.0 0.0 0.00 0.00 0.00 84 1014.4
20260504232904 46 0.0 0.0 0.00 0.00 0.00 84 1014.5
20260504231902 46 0.0 0.0 0.00 0.00 0.00 84 1014.4
20260504230859 46 0.0 0.0 0.00 0.00 0.00 84 1014.4